Regional Weather Roundup
Issued by NWS

Home | Current Version | Previous Version | Graphics & Text | Print | Product List | Glossary On
Versions: 1 2 3 4 5 6 7 8 9 10 11 12 13 14 15 16 17 18 19 20 21 22 23 24 25 26 27 28 29 30 31 32 33 34 35 36 37 38 39 40 41 42 43 44 45 46 47 48 49 50
000
ASUS44 KMEG 270400
RWRTN
TENNESSEE HOURLY STATE WEATHER ROUNDUP
NATIONAL WEATHER SERVICE MEMPHIS TN
1100 PM CDT THU MAR 26 2015

TNZ002-004-019-021-049-052-054-088>092-270500-
WEST TENNESSEE

CITY           SKY/WX    TMP DP  RH WIND       PRES   REMARKS
MEMPHIS INTL   CLEAR     43  35  73 N7        30.06S
NWS MEMPHIS      N/A     41 N/A N/A MISG        N/A
JACKSON        CLEAR     38  34  85 N7        30.05S WCI  33
DYERSBURG      CLEAR     37  25  60 CALM      30.07F
UNION CITY     CLEAR     37  36  93 CALM      30.04F
PARIS          CLEAR     34  30  86 N5        30.04F WCI  30
LEXINGTON      CLOUDY    41  36  81 N9        30.02R
SAVANNAH       CLOUDY    43  41  93 N9        30.03R
$$

TNZ008-025-027-028-033-062-065-066-270500-
NORTH MIDDLE TENNESSEE

CITY           SKY/WX    TMP DP  RH WIND       PRES   REMARKS
NASHVILLE      CLOUDY    42  37  82 N13G20    30.00F
CLARKSVILLE    PTCLDY    37  34  89 NW8       30.03F WCI  31
COOKEVILLE     CLOUDY    41  39  93 VRB3      29.95R
CROSSVILLE     LGT RAIN  39  36  89 N12       29.93R WCI  32
$$

TNZ061-075-076-078-094-096-097-270500-
SOUTH MIDDLE TENNESSEE

CITY           SKY/WX    TMP DP  RH WIND       PRES   REMARKS
FAYETTEVILLE   MOCLDY    39  37  93 NE16      29.91F WCI  30
TULLAHOMA      CLOUDY    41  39  93 N10       29.94F
WINCHESTER     CLOUDY    43  43 100 N12       29.94S
COLUMBIA       CLOUDY   N/A N/A N/A N6        29.97S
SHELBYVILLE    CLOUDY    45  43  93 N7        29.98R
$$

TNZ017-018-042-046-047-270500-
NORTHEAST TENNESSEE

CITY           SKY/WX    TMP DP  RH WIND       PRES   REMARKS
TRI CITIES     LGT RAIN  45  42  89 N8        29.86R
ELIZABETHTON   LGT RAIN  45  43  93 SW10      29.85R
$$

TNZ012-013-036-069-073-074-270500-
CENTRAL EAST TENNESSEE

CITY           SKY/WX    TMP DP  RH WIND       PRES   REMARKS
KNOXVILLE      LGT RAIN  46  44  93 N7        29.91R
OAK RIDGE      RAIN      46  44  93 CALM      29.94R FOG
GATLINBURG     CLOUDY    46  45  93 W3        29.90S
$$

TNZ083-085-099-270500-
SOUTHEAST TENNESSEE

CITY           SKY/WX    TMP DP  RH WIND       PRES   REMARKS
CHATTANOOGA    LGT RAIN  50  43  77 N17       29.91R
$$

SKY/WX REPORTED AS FAIR MEANS FEW OR NO CLOUDS BELOW
12 THOUSAND FEET.




USA.gov is the U.S. government's official web portal to all federal, state and local government web resources and services.